This is the latest recevied weather packets stored in our database for station/object KJ4YLO. If no packets are shown the sender has not sent any weather packets the latest 10 day(s).
| Time | Temp. | Humidity | Pressure | Rain* | Wind** | Luminosity | Snow |
|---|---|---|---|---|---|---|---|
| 1777570986 | 21.67° C | 69% | 1012 hPa | 0 mm | - | 270 W/m² | - |
| 1777570683 | 21.67° C | 69% | 1011.7 hPa | 0 mm | - | 564 W/m² | - |
| 1777570379 | 21.67° C | 67% | 1012 hPa | 0 mm | - | 510 W/m² | - |
| 1777570075 | 21.11° C | 68% | 1012 hPa | 0 mm | - | 581 W/m² | - |
| 1777569770 | 21.11° C | 68% | 1012 hPa | 0 mm | - | 522 W/m² | - |
| 1777569466 | 21.67° C | 68% | 1012 hPa | 0 mm | - | 268 W/m² | - |
| 1777569163 | 21.67° C | 68% | 1012 hPa | 0 mm | - | 366 W/m² | - |
| 1777568860 | 21.11° C | 69% | 1012.4 hPa | 0 mm | - | 427 W/m² | - |
| 1777568557 | 21.11° C | 67% | 1012.4 hPa | 0 mm | - | 390 W/m² | - |
| 1777568254 | 20.56° C | 70% | 1012.4 hPa | 0 mm | - | 464 W/m² | - |
| 1777567951 | 21.11° C | 67% | 1012.8 hPa | 0 mm | - | 344 W/m² | - |
| 1777567647 | 21.11° C | 69% | 1012.4 hPa | 0 mm | - | 516 W/m² | - |
| 1777567344 | 20.56° C | 70% | 1012.4 hPa | 0 mm | - | 486 W/m² | - |
| 1777567042 | 21.11° C | 69% | 1012.4 hPa | 0 mm | - | 382 W/m² | - |
| 1777566740 | 20.56° C | 70% | 1012.4 hPa | 0 mm | - | 442 W/m² | - |
| 1777566438 | 20.56° C | 70% | 1012.4 hPa | 0 mm | - | 431 W/m² | - |
| 1777566135 | 20.56° C | 67% | 1012.8 hPa | 0 mm | - | 447 W/m² | - |
| 1777565830 | 20.56° C | 72% | 1012.4 hPa | 0 mm | - | 533 W/m² | - |
| 1777565527 | 20.56° C | 75% | 1012.8 hPa | 0 mm | - | 501 W/m² | - |
| 1777565223 | 20.56° C | 75% | 1012.4 hPa | 0 mm | - | 415 W/m² | - |
| 1777564920 | 20.56° C | 76% | 1012.4 hPa | 0 mm | - | 358 W/m² | - |
| 1777564614 | 20° C | 75% | 1012.4 hPa | 0 mm | - | 331 W/m² | - |
| 1777564310 | 20.56° C | 76% | 1012.4 hPa | 0 mm | - | 189 W/m² | - |
| 1777564006 | 20° C | 79% | 1012.4 hPa | 0 mm | - | 281 W/m² | - |
| 1777563703 | 20° C | 77% | 1012.8 hPa | 0 mm | - | 505 W/m² | - |
* Rain latest hour (hover to see other rain measurements)
** Current wind speed in m/s (hover to see current wind gust speed)